Dewpoint
-8 -9 -7 -8 -7 -4 -3 -1 2 -1 -1 2 3 3 1 -4 -7 -6 -7 -7 -7 -8 -8 -9 -9 -9 -9 -8 -8 -8 -8 -8 -8 -8 -8 -9 -9 -10 -11 -11 -11 -11
-7 -9 -8 -8 -8 -6 -5 -3 -1 -1 -1 0 2 3 2 -3 -6 -6 -6 -6 -6 -7 -7 -8 -9 -9 -9 -8 -8 -8 -7 -8 -8 -7 -8 -8 -8 -9 -10 -11 -11 -12
-6 -7 -8 -9 -8 -7 -6 -5 -3 -1 -1 -1 0 1 0 -3 -4 -5 -6 -6 -6 -6 -7 -7 -8 -9 -9 -9 -8 -8 -8 -8 -7 -7 -8 -7 -8 -9 -9 -10 -11 -12
-5 -6 -7 -8 -8 -9 -7 -6 -4 -2 -1 -1 -1 -1 -1 -1 -2 -4 -5 -6 -6 -6 -6 -6 -7 -7 -8 -8 -9 -8 -8 -8 -7 -7 -7 -7 -8 -8 -8 -9 -10 -12
-4 -4 -5 -6 -7 -8 -8 -7 -6 -3 -2 -1 -0 -1 -1 -1 -1 -2 -3 -4 -5 -5 -5 -5 -5 -6 -6 -7 -8 -8 -8 -8 -8 -8 -7 -7 -8 -8 -8 -9 -9 -11
-3 -3 -4 -5 -5 -6 -7 -7 -6 -5 -4 -2 -1 -0 -0 -1 -0 -0 -1 -2 -4 -5 -5 -5 -5 -5 -5 -5 -5 -6 -7 -8 -8 -8 -8 -7 -7 -7 -8 -8 -9 -11
-3 -3 -3 -3 -3 -3 -4 -5 -5 -6 -5 -3 -1 -0 0 -0 -0 0 0 -0 -2 -3 -4 -4 -5 -4 -4 -4 -4 -4 -5 -7 -8 -8 -8 -8 -8 -8 -8 -8 -9 -10
-4 -3 -2 -2 -2 -2 -2 -2 -3 -4 -5 -4 -3 -0 1 1 0 0 1 1 -0 -1 -3 -3 -4 -4 -4 -3 -3 -3 -3 -4 -6 -7 -8 -8 -8 -8 -8 -8 -8 -10
0 -1 -2 -2 -2 -3 -2 -1 -0 -1 -2 -3 -2 -1 1 1 0 0 1 1 1 0 -0 -1 -2 -2 -2 -2 -2 -2 -2 -3 -4 -5 -7 -8 -8 -8 -8 -8 -9 -10
4 4 3 2 1 -1 -1 -2 -1 1 1 -1 -1 -1 1 2 2 1 1 1 1 1 1 0 -0 -1 -1 -1 -1 -1 -1 -2 -2 -4 -5 -7 -8 -8 -8 -8 -9 -10
5 5 5 4 4 3 2 1 -1 -1 1 1 1 0 1 2 3 2 1 1 2 2 1 1 0 0 0 0 0 0 0 -0 -1 -3 -4 -6 -8 -8 -8 -8 -9 -10
4 5 5 6 6 4 3 3 2 1 0 0 1 1 2 3 3 2 2 1 2 2 2 2 1 1 1 0 1 1 1 1 -0 -2 -4 -6 -7 -8 -8 -8 -10 -12
-2 1 4 7 8 7 6 5 5 5 4 2 2 2 2 2 3 3 2 2 2 2 2 2 2 2 1 1 1 2 2 2 0 -2 -4 -6 -7 -8 -8 -8 -11 -15
-7 -7 -3 2 6 8 8 8 8 8 7 6 5 4 3 3 4 4 3 2 2 2 2 2 2 2 2 1 2 2 2 2 -0 -2 -4 -6 -7 -7 -8 -9 -13 -17
-7 -7 -7 -5 -2 2 5 8 8 8 8 8 7 6 6 5 5 4 4 3 3 2 3 2 2 2 2 2 2 2 2 1 -1 -3 -5 -6 -6 -8 -9 -12 -17 -20
-7 -7 -7 -7 -7 -6 -2 4 7 8 8 8 8 8 7 7 6 5 4 4 3 3 3 3 3 3 2 2 2 2 1 -0 -2 -4 -5 -6 -7 -9 -12 -15 -18 -21
-9 -9 -8 -8 -8 -7 -7 -3 4 7 8 8 8 8 8 7 7 6 5 4 3 3 3 3 3 2 2 2 2 1 0 -2 -3 -4 -5 -6 -8 -11 -14 -14 -15 -17
-11 -11 -9 -7 -8 -7 -7 -7 -3 3 6 8 8 7 7 6 6 5 5 4 4 3 3 3 3 2 3 2 1 0 -1 -2 -3 -4 -5 -7 -9 -13 -14 -13 -14 -17
-14 -11 -8 -6 -7 -9 -9 -5 -4 -2 2 6 7 7 7 6 6 6 5 4 4 3 3 3 2 3 3 1 0 -1 -2 -3 -3 -4 -6 -8 -10 -13 -15 -16 -18 -18
-12 -10 -8 -8 -8 -9 -11 -8 -4 -4 -2 3 5 6 6 6 6 6 5 5 4 3 3 3 2 1 2 1 -0 -1 -2 -3 -4 -5 -8 -10 -11 -13 -17 -20 -20 -18
-9 -9 -10 -12 -11 -9 -11 -13 -9 -7 -4 2 4 3 5 6 6 6 5 4 3 3 3 3 1 1 1 0 -1 -2 -2 -3 -5 -8 -10 -11 -13 -15 -18 -17 -14 -15
-12 -13 -12 -11 -11 -8 -7 -11 -13 -12 -8 0 4 4 4 6 6 6 5 4 3 3 3 2 2 1 1 -0 -1 -2 -3 -6 -8 -10 -10 -9 -10 -11 -11 -10 -9 -11
-16 -16 -15 -11 -9 -6 -2 -5 -10 -12 -11 -3 3 5 5 6 6 5 5 4 3 2 2 2 1 0 -0 -1 -2 -3 -6 -9 -9 -8 -6 -6 -6 -7 -7 -6 -6 -7
-17 -18 -18 -13 -10 -5 -1 -3 -7 -9 -9 -4 2 5 5 6 6 5 4 3 2 2 2 1 -0 -1 -1 -2 -4 -7 -9 -10 -9 -7 -6 -6 -5 -5 -5 -5 -5 -6
-17 -17 -18 -16 -13 -8 -3 -2 -4 -5 -3 1 4 4 4 5 6 5 4 3 2 2 1 -0 -1 -2 -3 -5 -8 -10 -11 -11 -9 -7 -6 -6 -5 -5 -5 -5 -5 -5
-15 -15 -15 -15 -15 -11 -5 -1 -1 -2 0 3 4 3 3 5 5 5 4 3 2 1 -0 -1 -2 -3 -6 -10 -11 -11 -13 -14 -12 -9 -7 -6 -5 -5 -5 -5 -5 -5
Wind_Speed
22 20 18 17 16 14 12 11 10 9 7 8 8 8 7 6 4 3 3 3 2 1 1 1 1 2 3 4 4 4 4 5 5 7 7 8 9 9 8 8 7 7
22 22 20 19 17 16 15 13 11 10 9 8 8 9 9 7 6 5 5 4 4 3 3 2 1 1 1 2 2 3 3 4 5 7 8 9 10 10 10 9 8 7
22 21 21 21 19 18 16 15 13 12 11 11 10 10 10 8 7 7 7 6 6 6 5 4 3 2 1 1 1 1 2 4 5 7 8 10 10 11 11 11 10 9
21 21 20 21 21 20 18 16 15 14 14 14 13 12 11 10 9 8 8 8 8 8 8 7 6 4 4 3 3 3 3 4 5 6 8 9 10 11 12 12 12 12
24 22 21 21 21 21 20 19 18 16 16 15 15 15 14 13 12 11 10 10 10 10 10 9 8 6 5 5 5 5 6 6 6 7 8 9 10 11 12 13 13 14
27 25 23 22 22 22 22 21 20 19 18 17 17 17 17 16 15 13 12 11 12 12 12 11 10 8 6 6 6 7 7 8 8 8 9 10 11 12 13 14 15 16
30 28 26 25 24 23 23 23 22 21 21 20 19 18 19 19 18 17 15 14 13 14 14 14 13 11 9 8 8 8 8 8 9 9 10 10 12 13 14 15 16 16
32 30 30 29 27 26 25 24 24 24 23 22 21 20 21 21 20 20 18 16 16 16 16 16 14 13 12 10 10 10 9 9 9 9 10 11 12 13 14 16 17 17
30 30 31 31 31 31 29 27 26 26 25 25 24 23 22 22 23 22 21 19 18 18 18 17 16 15 14 13 13 12 11 11 11 11 11 12 13 14 15 16 17 18
25 26 27 30 32 33 33 32 31 28 26 26 26 26 24 24 25 25 23 22 22 21 20 19 18 17 16 16 15 14 13 13 13 13 14 14 14 15 16 17 18 18
20 22 23 26 29 32 32 34 34 32 29 27 27 28 27 26 27 27 26 26 25 24 23 21 20 19 18 18 17 16 16 16 16 16 16 16 16 17 17 18 18 18
13 16 19 21 24 30 33 35 35 35 33 31 29 29 30 29 30 30 29 29 27 26 25 23 22 21 21 21 19 18 18 17 18 18 18 17 17 17 18 18 18 17
7 8 13 15 17 22 28 32 32 32 32 33 31 31 32 32 33 33 32 30 29 28 27 25 24 23 23 22 21 20 19 19 20 20 20 20 19 19 19 19 18 17
8 7 9 11 12 14 17 21 23 23 24 26 28 30 31 31 32 33 32 31 31 31 30 28 27 26 24 23 22 21 20 21 21 20 20 20 20 20 20 19 18 17
9 8 9 10 11 12 13 14 16 17 18 19 22 25 27 29 33 36 34 33 34 33 32 30 29 27 26 24 23 22 21 21 21 20 20 20 20 19 19 18 18 17
10 11 11 12 12 13 14 13 13 13 15 16 17 19 20 23 30 34 34 35 37 35 34 32 30 29 28 26 23 22 21 21 21 20 19 19 18 17 17 17 17 17
12 12 13 14 15 15 16 16 14 12 13 14 14 16 18 20 24 28 31 34 36 36 34 33 32 31 29 26 23 21 21 21 20 20 19 18 17 16 15 15 16 17
14 14 13 14 15 16 17 18 17 14 12 11 11 14 18 21 23 24 27 31 34 36 36 34 31 29 27 25 23 22 21 20 19 19 18 17 16 16 15 14 16 19
17 16 15 15 16 17 18 17 18 17 14 11 12 13 16 19 19 21 26 31 35 39 39 34 28 27 27 25 23 22 21 19 17 18 17 16 16 17 17 17 18 19
17 16 16 17 17 18 20 19 18 18 16 12 13 15 17 18 19 21 26 31 35 38 38 32 28 27 27 24 21 20 19 17 15 16 16 16 17 18 19 19 20 19
17 17 18 19 19 19 21 21 21 20 18 13 12 15 18 17 18 21 26 30 33 36 35 32 28 27 24 21 18 17 16 15 15 17 17 17 18 19 19 19 19 20
19 20 20 20 20 19 20 22 22 22 20 15 11 13 16 15 15 21 27 30 33 34 34 32 27 23 19 16 15 14 14 14 15 15 16 16 16 17 18 17 18 21
22 23 23 22 21 19 18 20 22 21 21 18 13 13 14 15 18 23 28 32 34 34 32 27 21 17 15 14 13 13 13 13 12 11 12 13 14 16 17 16 18 21
24 25 25 23 22 20 19 20 21 21 21 18 14 13 13 15 20 27 32 35 35 32 27 21 16 13 12 12 12 11 12 11 10 10 11 12 14 16 16 16 18 21
26 26 26 25 24 22 21 21 21 21 19 15 13 14 15 16 22 31 36 36 33 28 21 16 13 12 11 11 11 11 11 11 10 11 13 14 15 16 16 17 18 21
29 28 27 26 25 23 22 21 21 20 18 15 14 15 16 17 24 33 37 34 28 22 17 13 11 10 10 10 10 11 11 12 13 14 15 16 16 17 18 18 19 20
Wind_Direction
198 199 197 194 193 195 197 197 204 217 210 191 189 191 199 218 229 225 231 239 238 231 217 181 144 126 112 101 92 82 63 47 38 31 27 23 21 19 16 13 7 356
200 201 202 200 198 197 196 197 206 218 221 210 196 194 205 224 232 233 241 250 256 257 261 263 239 186 122 100 88 80 55 32 26 21 18 17 15 14 14 13 11 6
202 203 205 206 205 204 200 199 203 213 223 224 215 212 223 233 231 230 236 243 253 258 264 270 272 281 287 311 352 16 17 12 13 11 8 9 7 5 5 5 4 4
210 207 208 209 211 212 208 206 207 211 220 227 229 230 235 238 233 231 233 235 243 250 257 264 270 280 290 295 304 311 322 336 349 356 359 358 357 358 357 357 357 357
217 214 215 214 215 218 217 216 216 216 220 226 231 235 238 241 239 236 235 234 237 243 247 254 259 265 277 288 294 297 301 310 325 339 344 345 346 347 347 349 349 349
224 221 223 222 221 223 224 224 224 224 225 227 231 236 238 242 243 242 241 238 237 240 243 246 250 253 258 271 283 290 295 302 312 322 329 333 334 336 339 343 344 344
233 229 230 230 230 231 231 231 231 232 231 233 235 236 239 241 243 244 244 242 240 240 242 244 246 249 253 260 270 278 287 296 302 308 315 321 326 329 332 336 339 339
241 239 238 238 238 238 239 238 238 238 237 237 237 237 240 241 242 243 243 242 241 239 240 244 246 249 252 258 267 276 287 294 297 297 300 305 313 318 322 326 329 331
248 247 246 247 246 245 245 244 245 244 241 240 239 239 240 241 240 241 242 241 240 239 239 243 247 250 254 258 265 275 287 296 298 298 297 299 304 309 313 317 320 323
249 249 250 252 252 252 251 249 248 247 245 244 242 239 238 241 242 241 241 239 237 237 239 243 248 252 256 260 267 277 287 295 300 300 299 300 301 303 307 310 313 317
249 249 250 252 254 256 257 256 253 250 249 248 246 243 240 240 242 241 237 236 236 237 239 243 247 252 256 260 267 276 283 291 296 298 298 298 299 300 302 305 309 312
250 247 249 253 255 253 253 257 259 257 254 250 247 247 245 242 243 243 238 235 235 237 239 242 246 249 253 258 263 270 276 283 288 292 293 293 295 297 299 302 306 308
280 267 259 257 256 251 249 254 260 261 258 255 250 249 251 250 247 243 237 233 234 236 239 243 246 247 250 254 259 263 269 276 281 285 286 287 290 291 294 299 302 304
277 280 274 267 262 257 251 253 257 257 257 259 257 252 253 253 247 240 234 230 231 235 238 240 243 245 248 251 254 258 264 270 275 279 280 282 285 287 291 296 300 302
277 274 277 279 278 274 267 258 254 252 251 252 256 257 254 251 248 245 237 230 228 230 233 236 240 242 244 247 250 254 260 266 271 274 275 278 283 287 292 296 299 302
300 293 289 288 287 286 284 275 261 255 251 247 247 249 243 240 245 247 240 231 229 230 232 236 237 239 242 244 246 251 258 264 268 270 272 277 283 289 294 297 300 301
311 306 302 296 291 288 288 285 274 258 251 249 240 231 230 238 249 253 246 237 234 234 235 235 236 240 242 242 244 250 256 261 265 268 273 279 284 291 295 296 298 299
316 312 308 302 296 291 290 290 285 270 254 246 232 230 246 257 259 257 251 241 234 232 230 229 233 239 240 240 244 250 254 258 264 269 276 282 287 292 293 291 292 294
314 313 309 303 299 295 292 290 286 280 270 253 237 242 258 265 259 250 246 240 231 227 227 228 233 237 239 241 245 248 251 257 264 272 280 285 287 291 293 291 291 293
312 309 305 301 299 295 293 290 286 282 277 262 251 255 260 263 260 250 243 238 230 226 229 232 233 235 238 240 243 247 253 261 271 278 283 285 286 290 293 293 292 292
312 308 303 300 297 293 291 290 288 285 279 264 254 259 260 258 256 249 242 234 227 224 227 230 231 232 234 237 242 250 259 269 277 282 286 288 289 292 294 293 294 295
309 308 305 300 296 291 287 286 286 286 281 268 250 251 251 242 240 244 240 230 222 221 223 225 225 225 228 235 246 256 267 276 281 286 289 289 289 291 293 292 292 295
306 306 304 301 295 288 281 279 281 281 278 269 252 242 241 236 235 238 232 224 219 217 218 217 215 217 228 243 254 262 270 277 282 284 282 280 282 286 288 286 286 290
303 303 302 299 294 286 278 275 276 275 271 263 249 237 234 233 234 230 223 219 217 214 211 209 210 217 233 247 255 262 269 275 279 279 277 278 281 284 286 286 286 289
300 301 299 295 290 284 277 272 271 270 262 249 238 235 231 229 230 227 222 218 215 211 207 207 212 223 234 243 252 261 269 276 277 276 278 281 283 286 287 288 287 289
298 299 299 295 288 280 273 266 264 263 253 237 231 231 225 226 231 228 221 214 209 204 200 196 199 220 235 241 252 262 268 272 273 275 279 284 287 289 289 289 289 290
Height
1525 1526 1527 1528 1529 1530 1531 1533 1534 1535 1536 1537 1537 1538 1538 1538 1538 1538 1539 1539 1539 1540 1540 1540 1540 1541 1541 1541 1541 1542 1542 1542 1542 1542 1542 1542 1542 1541 1541 1541 1541 1541
1523 1525 1526 1527 1528 1528 1529 1531 1532 1533 1535 1536 1536 1537 1537 1537 1538 1538 1538 1539 1539 1539 1540 1540 1540 1540 1541 1541 1541 1541 1541 1542 1542 1542 1541 1541 1541 1541 1541 1541 1540 1540
1521 1522 1524 1525 1526 1527 1528 1529 1530 1531 1532 1533 1534 1535 1535 1536 1537 1537 1538 1538 1538 1539 1539 1540 1540 1540 1540 1541 1541 1541 1541 1541 1541 1541 1541 1541 1541 1541 1540 1540 1540 1539
1519 1520 1522 1523 1524 1525 1526 1527 1528 1529 1530 1531 1532 1533 1533 1534 1535 1536 1537 1537 1538 1538 1538 1539 1539 1539 1540 1540 1540 1540 1540 1540 1541 1541 1541 1541 1541 1540 1540 1540 1539 1539
1517 1519 1520 1522 1523 1523 1524 1525 1526 1527 1528 1529 1530 1531 1532 1532 1533 1534 1535 1536 1536 1537 1538 1538 1539 1539 1539 1539 1539 1539 1539 1539 1539 1540 1540 1540 1540 1540 1539 1539 1539 1538
1515 1517 1518 1520 1521 1522 1522 1523 1524 1525 1527 1528 1529 1529 1530 1531 1531 1532 1533 1534 1535 1535 1536 1537 1538 1538 1538 1538 1538 1538 1538 1538 1538 1538 1538 1538 1538 1538 1538 1538 1537 1537
1513 1515 1516 1517 1518 1520 1520 1522 1523 1523 1525 1526 1527 1528 1528 1528 1529 1530 1531 1532 1532 1533 1534 1535 1536 1536 1537 1537 1537 1537 1538 1538 1537 1537 1537 1537 1536 1536 1536 1536 1536 1535
1510 1512 1514 1515 1516 1517 1518 1519 1521 1521 1522 1523 1524 1525 1526 1526 1527 1527 1529 1529 1530 1531 1531 1532 1533 1534 1534 1535 1535 1536 1536 1536 1536 1536 1536 1536 1535 1535 1535 1534 1534 1534
1507 1509 1511 1512 1513 1514 1516 1517 1518 1519 1520 1521 1522 1523 1523 1524 1525 1525 1526 1527 1528 1528 1529 1530 1531 1531 1532 1532 1533 1533 1534 1534 1534 1534 1534 1534 1534 1534 1533 1533 1532 1532
1505 1506 1507 1508 1509 1511 1512 1514 1515 1516 1517 1518 1519 1520 1520 1521 1522 1522 1524 1524 1525 1526 1526 1527 1528 1528 1529 1529 1530 1530 1531 1531 1531 1531 1532 1532 1532 1531 1531 1531 1530 1530
1502 1503 1504 1505 1506 1507 1508 1510 1511 1513 1514 1515 1516 1516 1517 1519 1519 1520 1521 1521 1522 1523 1523 1524 1525 1525 1526 1526 1527 1528 1528 1528 1528 1528 1529 1529 1529 1529 1528 1528 1528 1527
1500 1500 1501 1503 1503 1504 1505 1507 1507 1509 1510 1511 1512 1513 1514 1515 1516 1517 1517 1518 1520 1521 1521 1522 1523 1523 1523 1524 1524 1525 1525 1526 1526 1526 1526 1526 1526 1525 1525 1525 1525 1525
1499 1498 1499 1500 1501 1502 1503 1503 1503 1504 1505 1506 1509 1510 1511 1512 1513 1514 1515 1516 1517 1518 1519 1520 1520 1520 1521 1521 1522 1523 1523 1524 1524 1524 1523 1523 1523 1522 1522 1522 1522 1522
1498 1498 1498 1499 1499 1499 1500 1500 1501 1502 1502 1503 1505 1506 1507 1508 1509 1510 1512 1514 1515 1515 1516 1517 1517 1517 1518 1518 1519 1520 1521 1521 1521 1522 1521 1521 1521 1520 1519 1519 1518 1519
1497 1497 1497 1497 1497 1497 1497 1497 1498 1499 1500 1501 1501 1501 1503 1504 1503 1504 1507 1510 1511 1511 1512 1513 1514 1515 1515 1515 1516 1517 1518 1518 1518 1519 1519 1519 1518 1518 1517 1517 1516 1516
1496 1495 1494 1494 1494 1494 1494 1494 1495 1496 1497 1497 1497 1498 1499 1499 1498 1500 1502 1504 1505 1506 1507 1509 1511 1512 1512 1513 1514 1515 1515 1515 1516 1516 1516 1516 1516 1515 1515 1514 1514 1513
1493 1492 1492 1492 1492 1492 1492 1492 1493 1493 1494 1494 1494 1495 1495 1494 1495 1497 1499 1501 1503 1504 1504 1505 1507 1509 1510 1511 1512 1512 1513 1513 1513 1513 1513 1513 1513 1513 1513 1512 1512 1511
1490 1490 1490 1490 1490 1490 1490 1490 1490 1491 1491 1491 1491 1491 1491 1491 1492 1494 1495 1497 1500 1501 1500 1500 1502 1506 1508 1510 1510 1510 1510 1511 1511 1511 1511 1511 1510 1510 1511 1510 1510 1509
1488 1489 1488 1488 1488 1488 1488 1488 1488 1488 1488 1489 1489 1488 1487 1487 1488 1490 1491 1493 1495 1496 1496 1498 1501 1504 1506 1508 1508 1508 1508 1508 1509 1508 1508 1508 1508 1508 1508 1508 1507 1506
1487 1487 1487 1486 1486 1486 1485 1485 1485 1485 1485 1486 1486 1485 1485 1485 1485 1487 1488 1489 1491 1492 1494 1497 1499 1501 1503 1505 1506 1505 1506 1506 1506 1506 1506 1506 1505 1505 1505 1505 1504 1503
1485 1484 1484 1484 1483 1483 1482 1482 1482 1482 1482 1483 1483 1483 1483 1483 1483 1484 1485 1487 1488 1491 1493 1494 1497 1499 1502 1503 1503 1503 1503 1503 1503 1503 1503 1503 1503 1502 1502 1502 1501 1500
1482 1481 1481 1481 1481 1480 1480 1480 1479 1479 1479 1480 1480 1481 1480 1481 1481 1482 1483 1485 1487 1489 1490 1492 1495 1498 1500 1500 1500 1500 1500 1500 1500 1500 1500 1500 1500 1500 1499 1499 1498 1497
1479 1478 1478 1478 1478 1478 1477 1477 1477 1477 1477 1477 1478 1478 1478 1478 1479 1480 1481 1483 1485 1487 1488 1490 1493 1496 1497 1497 1497 1497 1497 1498 1498 1499 1499 1499 1498 1497 1497 1496 1495 1494
1476 1476 1475 1475 1474 1475 1474 1474 1474 1474 1474 1474 1475 1476 1477 1476 1477 1478 1479 1481 1483 1485 1487 1490 1491 1493 1493 1494 1494 1495 1495 1495 1497 1498 1498 1497 1496 1495 1494 1493 1492 1490
1473 1473 1472 1472 1472 1471 1472 1471 1471 1471 1471 1472 1472 1474 1475 1474 1474 1475 1477 1478 1481 1484 1487 1488 1488 1489 1490 1492 1492 1493 1493 1493 1495 1495 1495 1495 1494 1493 1492 1491 1489 1487
1470 1470 1469 1469 1468 1468 1469 1468 1468 1468 1469 1469 1470 1471 1472 1472 1472 1473 1475 1477 1480 1483 1484 1485 1486 1487 1489 1490 1490 1490 1491 1491 1492 1492 1492 1492 1491 1490 1489 1487 1486 1485